This is the latest recevied weather packets stored in our database for station/object WA9AFM-10. If no packets are shown the sender has not sent any weather packets the latest 10 day(s).
| Time | Temp. | Humidity | Pressure | Rain* | Wind** | Luminosity | Snow |
|---|---|---|---|---|---|---|---|
| 1777812896 | 12.78° C | 78% | 1012.9 hPa | 0 mm | - | - | - |
| 1777812672 | 12.78° C | 78% | 1012.9 hPa | 0 mm | - | - | - |
| 1777810873 | 11.67° C | 81% | 1012.6 hPa | 0 mm | - | - | - |
| 1777809074 | 11.11° C | 81% | 1012.4 hPa | 0 mm | - | - | - |
| 1777807274 | 11.11° C | 78% | 1012.5 hPa | 0 mm | - | - | - |
| 1777805473 | 11.67° C | 76% | 1012.5 hPa | 0 mm | - | - | - |
| 1777803673 | 12.22° C | 72% | 1012.8 hPa | 0 mm | - | - | - |
| 1777801874 | 13.33° C | 69% | 1013 hPa | 0 mm | - | - | - |
| 1777800074 | 13.33° C | 67% | 1013.4 hPa | 0 mm | - | - | - |
| 1777798273 | 13.33° C | 66% | 1013.6 hPa | 0 mm | - | - | - |
| 1777796473 | 13.89° C | 67% | 1014 hPa | 0 mm | - | - | - |
| 1777794674 | 13.89° C | 65% | 1014.3 hPa | 0 mm | - | - | - |
| 1777792873 | 14.44° C | 64% | 1014.5 hPa | 0 mm | - | - | - |
| 1777791074 | 14.44° C | 63% | 1014.7 hPa | 0 mm | - | - | - |
| 1777787472 | 15° C | 60% | 1015 hPa | 0 mm | - | - | - |
| 1777785673 | 15° C | 58% | 1015.1 hPa | 0 mm | - | - | - |
| 1777783873 | 15° C | 56% | 1014.8 hPa | 0 mm | - | - | - |
| 1777782077 | 15.56° C | 60% | 1014.7 hPa | 0 mm | - | - | - |
| 1777780272 | 15.56° C | 59% | 1014.8 hPa | 0 mm | - | - | - |
| 1777778473 | 16.11° C | 58% | 1014.7 hPa | 0 mm | - | - | - |
| 1777776673 | 17.22° C | 56% | 1014.4 hPa | 0 mm | - | - | - |
| 1777774876 | 17.78° C | 54% | 1014.2 hPa | 0 mm | - | - | - |
| 1777773072 | 18.89° C | 50% | 1013.9 hPa | 0 mm | - | - | - |
| 1777771273 | 20° C | 46% | 1013.7 hPa | 0 mm | - | - | - |
| 1777769473 | 21.11° C | 42% | 1013.5 hPa | 0 mm | - | - | - |
* Rain latest hour (hover to see other rain measurements)
** Current wind speed in m/s (hover to see current wind gust speed)